Tracking 20092 objects as of 14-Dec-2019
HD Live streaming from Space Station
objects crossing your sky now

DELTA 1 DEB

Track DELTA 1 DEB now!
10-day predictions


NORAD ID: 13574
Int'l Code: 1978-026FM
Perigee: 823.2 km
Apogee: 881.8 km
Inclination: 98.8 °
Period: 101.8 minutes
Semi major axis: 7223 km
RCS: 0.0387 m2 (small)
Launch date: March 5, 1978
Source: United States (US)
Launch site: AIR FORCE WESTERN TEST RANGE (AFWTR)

Note: This is SATELLITE DEBRIS
aabbcc
Your satellite tracking list
Your tracking list is empty




NASA's NSSDC Master Catalog

Two Line Element Set (TLE):
1 13574U 78026FM  19346.86055566 +.00000134 +00000-0 +92131-4 0  9995
2 13574 098.7570 304.0385 0040560 065.6623 347.5348 14.14108846970124
Source of the keplerian elements: AFSPC